This is the latest recevied weather packets stored in our database for station/object IZ0VWB-3. If no packets are shown the sender has not sent any weather packets the latest 1 day(s).
| Time | Temp. | Humidity | Pressure | Rain* | Wind** | Luminosity | Snow |
|---|---|---|---|---|---|---|---|
| 1777961608 | 11.67° C | 74% | 1002.3 hPa | 0.76 mm | 1.34 m/s, 139° | - | - |
| 1777961008 | 11.67° C | 75% | 1002.3 hPa | 0 mm | 1.34 m/s, 136° | - | - |
| 1777960406 | 11.67° C | 76% | 1002.2 hPa | 0 mm | 1.34 m/s, 124° | - | - |
| 1777959805 | 11.67° C | 76% | 1002.2 hPa | 0 mm | 1.79 m/s, 125° | - | - |
| 1777959206 | 11.67° C | 77% | 1002.2 hPa | 0 mm | 1.34 m/s, 143° | - | - |
| 1777958607 | 11.67° C | 78% | 1002 hPa | 0 mm | 0.89 m/s, 153° | - | - |
| 1777958006 | 11.67° C | 78% | 1002.1 hPa | 0 mm | 1.34 m/s, 115° | - | - |
| 1777957407 | 11.67° C | 78% | 1002.1 hPa | 0 mm | 1.34 m/s, 150° | - | - |
| 1777956807 | 11.67° C | 78% | 1002.1 hPa | 0.76 mm | 2.24 m/s, 142° | - | - |
| 1777956205 | 11.67° C | 79% | 1002 hPa | 0.76 mm | 1.34 m/s, 132° | - | - |
| 1777955605 | 11.67° C | 80% | 1002 hPa | 0.76 mm | 1.79 m/s, 130° | - | - |
| 1777955006 | 11.67° C | 80% | 1002.1 hPa | 1.27 mm | 1.34 m/s, 141° | - | - |
| 1777954405 | 11.67° C | 81% | 1002.1 hPa | 1.27 mm | 1.34 m/s, 122° | - | - |
| 1777953805 | 11.67° C | 81% | 1002 hPa | 1.27 mm | 1.34 m/s, 138° | - | - |
| 1777953205 | 11.67° C | 81% | 1002 hPa | 1.27 mm | 1.79 m/s, 133° | - | - |
| 1777952606 | 11.67° C | 82% | 1002.2 hPa | 1.27 mm | 1.34 m/s, 163° | - | - |
| 1777952006 | 11.67° C | 82% | 1002.2 hPa | 1.27 mm | 1.79 m/s, 132° | - | - |
| 1777951405 | 12.22° C | 82% | 1002.4 hPa | 0.76 mm | 1.34 m/s, 125° | - | - |
| 1777950806 | 12.22° C | 82% | 1002.5 hPa | 0.76 mm | 1.34 m/s, 133° | - | - |
| 1777950204 | 12.22° C | 83% | 1002.6 hPa | 0.76 mm | 0.89 m/s, 128° | - | - |
| 1777949604 | 12.22° C | 83% | 1002.7 hPa | 0 mm | 0.45 m/s, 140° | - | - |
| 1777949004 | 12.22° C | 83% | 1002.7 hPa | 0 mm | 0.89 m/s, 126° | - | - |
* Rain latest hour (hover to see other rain measurements)
** Current wind speed in m/s (hover to see current wind gust speed)